Time,TemperatureF,DewpointF,PressureIn,WindDirection,WindDirectionDegrees,WindSpeedMPH,WindSpeedGustMPH,Humidity,HourlyPrecipIn,Conditions,Clouds,dailyrainin,SoftwareType,DateUTC
2013-03-16 00:00:00,33.8,24.4,29.66,WNW,294,4.0,5.0,68,0.00,,,0.00,WeatherCatV1.10B1784,2013-03-16 04:00:00,
2013-03-16 00:05:00,33.8,24.7,29.67,WNW,283,4.0,4.0,69,0.00,,,0.00,WeatherCatV1.10B1784,2013-03-16 04:05:00,
2013-03-16 00:06:00,33.8,24.7,29.67,West,277,1.0,6.0,69,0.00,,,0.00,WeatherCatV1.10B1784,2013-03-16 04:06:00,
2013-03-16 00:11:00,33.8,24.7,29.67,NNW,329,2.0,3.0,69,0.00,,,0.00,WeatherCatV1.10B1784,2013-03-16 04:11:00,
2013-03-16 00:16:00,33.4,26.0,29.68,NNW,333,3.0,3.0,74,0.00,,,0.00,WeatherCatV1.10B1784,2013-03-16 04:16:00,
2013-03-16 00:21:00,32.6,26.8,29.68,NNW,333,2.0,5.0,79,0.00,,,0.00,WeatherCatV1.10B1784,2013-03-16 04:21:00,
2013-03-16 00:26:00,32.1,26.6,29.68,WNW,297,3.0,4.0,80,0.00,,,0.00,WeatherCatV1.10B1784,2013-03-16 04:26:00,
2013-03-16 00:31:00,31.9,26.4,29.68,NW,316,5.0,6.0,80,0.00,,,0.00,WeatherCatV1.10B1784,2013-03-16 04:31:00,
2013-03-16 00:36:00,31.8,26.6,29.68,NNW,328,4.0,5.0,81,0.00,,,0.00,WeatherCatV1.10B1784,2013-03-16 04:36:00,
2013-03-16 00:41:00,31.5,26.7,29.68,NNW,338,4.0,8.0,82,0.00,,,0.00,WeatherCatV1.10B1784,2013-03-16 04:41:00,
2013-03-16 00:46:00,31.3,26.5,29.69,West,278,3.0,9.0,82,0.00,,,0.00,WeatherCatV1.10B1784,2013-03-16 04:46:00,
2013-03-16 00:51:00,31.3,26.5,29.69,WSW,248,4.0,6.0,82,0.00,,,0.00,WeatherCatV1.10B1784,2013-03-16 04:51:00,
2013-03-16 00:56:00,31.3,25.9,29.69,NNW,338,2.0,7.0,80,0.00,,,0.00,WeatherCatV1.10B1784,2013-03-16 04:56:00,
2013-03-16 01:01:00,31.1,25.4,29.69,NW,324,0.0,8.0,79,0.00,,,0.00,WeatherCatV1.10B1784,2013-03-16 05:01:00,
2013-03-16 01:06:00,31.0,25.6,29.69,NW,324,0.0,4.0,80,0.00,,,0.00,WeatherCatV1.10B1784,2013-03-16 05:06:00,
2013-03-16 01:11:00,31.0,25.6,29.69,West,267,0.0,6.0,80,0.00,,,0.00,WeatherCatV1.10B1784,2013-03-16 05:11:00,
2013-03-16 01:16:00,30.9,25.2,29.70,West,276,4.0,4.0,79,0.00,,,0.00,WeatherCatV1.10B1784,2013-03-16 05:16:00,
2013-03-16 01:21:00,30.9,24.9,29.70,NW,322,4.0,9.0,78,0.00,,,0.00,WeatherCatV1.10B1784,2013-03-16 05:21:00,
2013-03-16 01:26:00,30.9,24.9,29.70,West,275,2.0,4.0,78,0.00,,,0.00,WeatherCatV1.10B1784,2013-03-16 05:26:00,
2013-03-16 01:31:00,31.0,24.3,29.70,NNW,329,1.0,7.0,76,0.00,,,0.00,WeatherCatV1.10B1784,2013-03-16 05:31:00,
2013-03-16 01:36:00,30.9,24.2,29.70,SW,214,2.0,5.0,76,0.00,,,0.00,WeatherCatV1.10B1784,2013-03-16 05:36:00,
2013-03-16 01:41:00,30.8,24.1,29.70,WNW,296,2.0,5.0,76,0.00,,,0.00,WeatherCatV1.10B1784,2013-03-16 05:41:00,
2013-03-16 01:46:00,30.7,24.0,29.71,NW,325,2.0,3.0,76,0.00,,,0.00,WeatherCatV1.10B1784,2013-03-16 05:46:00,
2013-03-16 01:51:00,30.5,23.9,29.71,NNW,327,1.0,8.0,76,0.00,,,0.00,WeatherCatV1.10B1784,2013-03-16 05:51:00,
2013-03-16 01:56:00,30.2,23.9,29.71,NNW,341,2.0,6.0,77,0.00,,,0.00,WeatherCatV1.10B1784,2013-03-16 05:56:00,
2013-03-16 02:01:00,30.1,24.1,29.71,NNW,327,7.0,7.0,78,0.00,,,0.00,WeatherCatV1.10B1784,2013-03-16 06:01:00,
2013-03-16 02:06:00,30.0,24.0,29.71,NNW,347,2.0,7.0,78,0.00,,,0.00,WeatherCatV1.10B1784,2013-03-16 06:06:00,
2013-03-16 02:11:00,29.9,23.9,29.71,NNW,340,0.0,2.0,78,0.00,,,0.00,WeatherCatV1.10B1784,2013-03-16 06:11:00,
2013-03-16 02:16:00,29.8,23.8,29.71,NW,324,3.0,5.0,78,0.00,,,0.00,WeatherCatV1.10B1784,2013-03-16 06:16:00,
2013-03-16 02:21:00,29.7,23.7,29.71,NW,317,0.0,0.0,78,0.00,,,0.00,WeatherCatV1.10B1784,2013-03-16 06:21:00,
2013-03-16 02:26:00,29.6,23.6,29.72,NW,317,0.0,0.0,78,0.00,,,0.00,WeatherCatV1.10B1784,2013-03-16 06:26:00,
2013-03-16 02:31:00,29.6,23.6,29.71,NW,317,0.0,0.0,78,0.00,,,0.00,WeatherCatV1.10B1784,2013-03-16 06:31:00,
2013-03-16 02:36:00,29.4,23.7,29.72,NW,317,1.0,3.0,79,0.00,,,0.00,WeatherCatV1.10B1784,2013-03-16 06:36:00,
2013-03-16 02:41:00,29.4,23.7,29.72,NW,317,0.0,2.0,79,0.00,,,0.00,WeatherCatV1.10B1784,2013-03-16 06:41:00,
2013-03-16 02:46:00,29.3,23.6,29.72,NW,317,1.0,2.0,79,0.00,,,0.00,WeatherCatV1.10B1784,2013-03-16 06:46:00,
2013-03-16 02:51:00,29.3,23.6,29.72,NW,317,1.0,3.0,79,0.00,,,0.00,WeatherCatV1.10B1784,2013-03-16 06:51:00,
2013-03-16 02:56:00,29.2,23.5,29.72,NW,317,0.0,3.0,79,0.00,,,0.00,WeatherCatV1.10B1784,2013-03-16 06:56:00,
2013-03-16 03:01:00,29.2,23.8,29.72,NW,317,0.0,3.0,80,0.00,,,0.00,WeatherCatV1.10B1784,2013-03-16 07:01:00,
2013-03-16 03:06:00,29.1,23.4,29.72,NW,317,0.0,2.0,79,0.00,,,0.00,WeatherCatV1.10B1784,2013-03-16 07:06:00,
2013-03-16 03:11:00,29.1,23.7,29.72,NW,317,0.0,2.0,80,0.00,,,0.00,WeatherCatV1.10B1784,2013-03-16 07:11:00,
2013-03-16 03:16:00,29.0,23.3,29.73,NW,323,1.0,1.0,79,0.00,,,0.00,WeatherCatV1.10B1784,2013-03-16 07:16:00,
2013-03-16 03:21:00,29.0,23.3,29.72,NW,323,0.0,3.0,79,0.00,,,0.00,WeatherCatV1.10B1784,2013-03-16 07:21:00,
2013-03-16 03:26:00,29.0,23.3,29.73,NW,323,1.0,2.0,79,0.00,,,0.00,WeatherCatV1.10B1784,2013-03-16 07:26:00,
2013-03-16 03:31:00,28.8,22.8,29.73,NW,323,1.0,2.0,78,0.00,,,0.00,WeatherCatV1.10B1784,2013-03-16 07:31:00,
2013-03-16 03:36:00,28.8,22.5,29.73,NW,323,0.0,2.0,77,0.00,,,0.00,WeatherCatV1.10B1784,2013-03-16 07:36:00,
2013-03-16 03:41:00,28.7,22.7,29.73,NW,323,1.0,3.0,78,0.00,,,0.00,WeatherCatV1.10B1784,2013-03-16 07:41:00,
2013-03-16 03:46:00,28.8,22.8,29.73,NW,323,1.0,1.0,78,0.00,,,0.00,WeatherCatV1.10B1784,2013-03-16 07:46:00,
2013-03-16 03:51:00,28.7,22.4,29.73,NW,323,0.0,0.0,77,0.00,,,0.00,WeatherCatV1.10B1784,2013-03-16 07:51:00,
2013-03-16 03:56:00,28.6,22.3,29.73,NW,323,0.0,2.0,77,0.00,,,0.00,WeatherCatV1.10B1784,2013-03-16 07:56:00,
2013-03-16 04:01:00,28.4,22.1,29.73,NW,323,0.0,0.0,77,0.00,,,0.00,WeatherCatV1.10B1784,2013-03-16 08:01:00,
2013-03-16 04:06:00,28.3,22.3,29.74,NW,323,0.0,0.0,78,0.00,,,0.00,WeatherCatV1.10B1784,2013-03-16 08:06:00,
2013-03-16 04:11:00,28.1,22.1,29.74,NW,323,0.0,0.0,78,0.00,,,0.00,WeatherCatV1.10B1784,2013-03-16 08:11:00,
2013-03-16 04:16:00,28.0,22.0,29.74,NW,323,0.0,0.0,78,0.00,,,0.00,WeatherCatV1.10B1784,2013-03-16 08:16:00,
2013-03-16 04:21:00,27.8,22.2,29.75,NW,323,0.0,0.0,79,0.00,,,0.00,WeatherCatV1.10B1784,2013-03-16 08:21:00,
2013-03-16 04:26:00,27.6,22.0,29.74,NW,323,0.0,1.0,79,0.00,,,0.00,WeatherCatV1.10B1784,2013-03-16 08:26:00,
2013-03-16 04:31:00,27.5,22.2,29.74,NW,323,0.0,0.0,80,0.00,,,0.00,WeatherCatV1.10B1784,2013-03-16 08:31:00,
2013-03-16 04:36:00,27.5,22.2,29.75,NW,323,0.0,0.0,80,0.00,,,0.00,WeatherCatV1.10B1784,2013-03-16 08:36:00,
2013-03-16 04:41:00,27.5,22.2,29.75,NW,323,0.0,0.0,80,0.00,,,0.00,WeatherCatV1.10B1784,2013-03-16 08:41:00,
2013-03-16 04:46:00,27.6,22.3,29.75,NW,323,0.0,0.0,80,0.00,,,0.00,WeatherCatV1.10B1784,2013-03-16 08:46:00,
2013-03-16 04:51:00,27.6,22.3,29.75,NW,323,0.0,0.0,80,0.00,,,0.00,WeatherCatV1.10B1784,2013-03-16 08:51:00,
2013-03-16 04:56:00,27.6,22.3,29.76,NW,323,0.0,0.0,80,0.00,,,0.00,WeatherCatV1.10B1784,2013-03-16 08:56:00,
2013-03-16 05:01:00,27.5,22.2,29.76,NW,323,0.0,0.0,80,0.00,,,0.00,WeatherCatV1.10B1784,2013-03-16 09:01:00,
2013-03-16 05:06:00,27.4,22.1,29.76,NW,323,0.0,0.0,80,0.00,,,0.00,WeatherCatV1.10B1784,2013-03-16 09:06:00,
2013-03-16 05:11:00,27.3,21.7,29.76,NW,323,0.0,0.0,79,0.00,,,0.00,WeatherCatV1.10B1784,2013-03-16 09:11:00,
2013-03-16 05:16:00,27.2,21.9,29.77,NW,323,0.0,0.0,80,0.00,,,0.00,WeatherCatV1.10B1784,2013-03-16 09:16:00,
2013-03-16 05:21:00,27.0,21.7,29.77,NW,323,0.0,0.0,80,0.00,,,0.00,WeatherCatV1.10B1784,2013-03-16 09:21:00,
2013-03-16 05:26:00,26.9,21.3,29.77,NW,323,1.0,2.0,79,0.00,,,0.00,WeatherCatV1.10B1784,2013-03-16 09:26:00,
2013-03-16 05:31:00,26.9,21.0,29.77,NW,323,0.0,0.0,78,0.00,,,0.00,WeatherCatV1.10B1784,2013-03-16 09:31:00,
2013-03-16 05:36:00,26.9,20.7,29.78,NW,323,2.0,3.0,77,0.00,,,0.00,WeatherCatV1.10B1784,2013-03-16 09:36:00,
2013-03-16 05:41:00,26.9,20.7,29.78,NW,323,0.0,0.0,77,0.00,,,0.00,WeatherCatV1.10B1784,2013-03-16 09:41:00,
2013-03-16 05:46:00,26.7,20.2,29.78,NW,323,1.0,1.0,76,0.00,,,0.00,WeatherCatV1.10B1784,2013-03-16 09:46:00,
2013-03-16 05:51:00,26.6,19.8,29.78,NW,323,0.0,0.0,75,0.00,,,0.00,WeatherCatV1.10B1784,2013-03-16 09:51:00,
2013-03-16 05:56:00,26.4,19.6,29.78,NW,323,0.0,2.0,75,0.00,,,0.00,WeatherCatV1.10B1784,2013-03-16 09:56:00,
2013-03-16 06:01:00,26.2,19.7,29.78,NW,323,1.0,1.0,76,0.00,,,0.00,WeatherCatV1.10B1784,2013-03-16 10:01:00,
2013-03-16 06:06:00,26.2,19.1,29.78,NW,323,0.0,0.0,74,0.00,,,0.00,WeatherCatV1.10B1784,2013-03-16 10:06:00,
2013-03-16 06:11:00,26.1,18.7,29.78,NW,323,0.0,1.0,73,0.00,,,0.00,WeatherCatV1.10B1784,2013-03-16 10:11:00,
2013-03-16 06:16:00,26.0,18.6,29.79,NW,323,0.0,0.0,73,0.00,,,0.00,WeatherCatV1.10B1784,2013-03-16 10:16:00,
2013-03-16 06:21:00,25.9,18.1,29.79,NW,323,0.0,0.0,72,0.00,,,0.00,WeatherCatV1.10B1784,2013-03-16 10:21:00,
2013-03-16 06:26:00,25.8,17.7,29.80,NW,323,0.0,0.0,71,0.00,,,0.00,WeatherCatV1.10B1784,2013-03-16 10:26:00,
2013-03-16 06:31:00,25.5,18.1,29.80,NW,323,0.0,0.0,73,0.00,,,0.00,WeatherCatV1.10B1784,2013-03-16 10:31:00,
2013-03-16 06:36:00,25.3,17.2,29.79,NW,323,3.0,4.0,71,0.00,,,0.00,WeatherCatV1.10B1784,2013-03-16 10:36:00,
2013-03-16 06:41:00,25.6,17.2,29.79,NW,323,0.0,2.0,70,0.00,,,0.00,WeatherCatV1.10B1784,2013-03-16 10:41:00,
2013-03-16 06:46:00,25.6,16.9,29.80,NW,323,1.0,1.0,69,0.00,,,0.00,WeatherCatV1.10B1784,2013-03-16 10:46:00,
2013-03-16 06:51:00,25.6,16.9,29.80,NW,323,0.0,0.0,69,0.00,,,0.00,WeatherCatV1.10B1784,2013-03-16 10:51:00,
2013-03-16 06:56:00,25.4,16.3,29.80,NW,323,0.0,0.0,68,0.00,,,0.00,WeatherCatV1.10B1784,2013-03-16 10:56:00,
2013-03-16 07:01:00,25.3,16.2,29.80,NW,323,0.0,0.0,68,0.00,,,0.00,WeatherCatV1.10B1784,2013-03-16 11:01:00,
2013-03-16 07:06:00,25.2,16.5,29.80,NW,323,1.0,2.0,69,0.00,,,0.00,WeatherCatV1.10B1784,2013-03-16 11:06:00,
2013-03-16 07:11:00,25.1,16.4,29.80,NW,323,0.0,2.0,69,0.00,,,0.00,WeatherCatV1.10B1784,2013-03-16 11:11:00,
2013-03-16 07:16:00,25.0,16.6,29.80,NW,323,1.0,1.0,70,0.00,,,0.00,WeatherCatV1.10B1784,2013-03-16 11:16:00,
2013-03-16 07:21:00,25.0,16.3,29.80,NW,323,2.0,2.0,69,0.00,,,0.00,WeatherCatV1.10B1784,2013-03-16 11:21:00,
2013-03-16 07:26:00,25.1,16.4,29.80,NW,323,0.0,2.0,69,0.00,,,0.00,WeatherCatV1.10B1784,2013-03-16 11:26:00,
2013-03-16 07:31:00,25.1,16.4,29.81,NW,323,0.0,0.0,69,0.00,,,0.00,WeatherCatV1.10B1784,2013-03-16 11:31:00,
2013-03-16 07:36:00,25.1,16.4,29.81,NW,323,0.0,0.0,69,0.00,,,0.00,WeatherCatV1.10B1784,2013-03-16 11:36:00,
2013-03-16 07:41:00,25.2,16.5,29.81,NW,323,0.0,0.0,69,0.00,,,0.00,WeatherCatV1.10B1784,2013-03-16 11:41:00,
2013-03-16 07:46:00,25.2,16.5,29.81,NW,323,0.0,2.0,69,0.00,,,0.00,WeatherCatV1.10B1784,2013-03-16 11:46:00,
2013-03-16 07:51:00,25.2,16.5,29.82,NW,323,2.0,2.0,69,0.00,,,0.00,WeatherCatV1.10B1784,2013-03-16 11:51:00,
2013-03-16 07:56:00,25.3,15.6,29.82,NW,323,2.0,7.0,66,0.00,,,0.00,WeatherCatV1.10B1784,2013-03-16 11:56:00,
2013-03-16 08:01:00,25.4,15.7,29.82,NW,323,1.0,7.0,66,0.00,,,0.00,WeatherCatV1.10B1784,2013-03-16 12:01:00,
2013-03-16 08:06:00,25.6,15.8,29.82,NW,323,0.0,2.0,66,0.00,,,0.00,WeatherCatV1.10B1784,2013-03-16 12:06:00,
2013-03-16 08:11:00,25.8,16.0,29.82,NW,323,1.0,1.0,66,0.00,,,0.00,WeatherCatV1.10B1784,2013-03-16 12:11:00,
2013-03-16 08:16:00,26.0,15.9,29.82,NW,323,1.0,4.0,65,0.00,,,0.00,WeatherCatV1.10B1784,2013-03-16 12:16:00,
2013-03-16 08:21:00,26.1,16.0,29.82,North,356,1.0,1.0,65,0.00,,,0.00,WeatherCatV1.10B1784,2013-03-16 12:21:00,
2013-03-16 08:26:00,26.3,16.2,29.82,North,356,2.0,3.0,65,0.00,,,0.00,WeatherCatV1.10B1784,2013-03-16 12:26:00,
2013-03-16 08:31:00,26.5,16.0,29.82,North,356,5.0,5.0,64,0.00,,,0.00,WeatherCatV1.10B1784,2013-03-16 12:31:00,
2013-03-16 08:36:00,26.4,15.2,29.83,NW,319,2.0,8.0,62,0.00,,,0.00,WeatherCatV1.10B1784,2013-03-16 12:36:00,
2013-03-16 08:41:00,26.7,15.8,29.83,NW,318,1.0,3.0,63,0.00,,,0.00,WeatherCatV1.10B1784,2013-03-16 12:41:00,
2013-03-16 08:46:00,27.0,15.7,29.83,NW,321,3.0,4.0,62,0.00,,,0.00,WeatherCatV1.10B1784,2013-03-16 12:46:00,
2013-03-16 08:51:00,27.1,15.5,29.82,NW,320,3.0,4.0,61,0.00,,,0.00,WeatherCatV1.10B1784,2013-03-16 12:51:00,
2013-03-16 08:56:00,27.2,15.9,29.82,NW,326,2.0,4.0,62,0.00,,,0.00,WeatherCatV1.10B1784,2013-03-16 12:56:00,
2013-03-16 09:01:00,27.2,15.2,29.82,NW,325,3.0,5.0,60,0.00,,,0.00,WeatherCatV1.10B1784,2013-03-16 13:01:00,
2013-03-16 09:06:00,27.3,15.3,29.83,NNW,344,0.0,7.0,60,0.00,,,0.00,WeatherCatV1.10B1784,2013-03-16 13:06:00,
2013-03-16 09:11:00,27.4,15.4,29.83,NNW,346,3.0,5.0,60,0.00,,,0.00,WeatherCatV1.10B1784,2013-03-16 13:11:00,
2013-03-16 09:16:00,27.5,15.5,29.83,North,350,5.0,7.0,60,0.00,,,0.00,WeatherCatV1.10B1784,2013-03-16 13:16:00,
2013-03-16 09:21:00,27.5,15.5,29.83,North,350,0.0,3.0,60,0.00,,,0.00,WeatherCatV1.10B1784,2013-03-16 13:21:00,
2013-03-16 09:26:00,27.8,15.7,29.82,NNW,348,2.0,6.0,60,0.00,,,0.00,WeatherCatV1.10B1784,2013-03-16 13:26:00,
2013-03-16 09:31:00,28.0,15.9,29.83,NNW,348,0.0,1.0,60,0.00,,,0.00,WeatherCatV1.10B1784,2013-03-16 13:31:00,
2013-03-16 09:36:00,28.3,15.8,29.83,NNW,348,0.0,2.0,59,0.00,,,0.00,WeatherCatV1.10B1784,2013-03-16 13:36:00,
2013-03-16 09:41:00,28.4,15.5,29.83,NW,321,0.0,5.0,58,0.00,,,0.00,WeatherCatV1.10B1784,2013-03-16 13:41:00,
2013-03-16 09:46:00,28.9,15.2,29.83,NW,321,1.0,1.0,56,0.00,,,0.00,WeatherCatV1.10B1784,2013-03-16 13:46:00,
2013-03-16 09:51:00,29.2,15.9,29.83,NW,321,4.0,4.0,57,0.00,,,0.00,WeatherCatV1.10B1784,2013-03-16 13:51:00,
2013-03-16 09:56:00,28.7,15.0,29.83,NW,323,0.0,0.0,56,0.00,,,0.00,WeatherCatV1.10B1784,2013-03-16 13:56:00,
2013-03-16 10:01:00,28.8,15.5,29.83,NW,323,0.0,1.0,57,0.00,,,0.00,WeatherCatV1.10B1784,2013-03-16 14:01:00,
2013-03-16 10:06:00,29.0,15.7,29.82,NW,323,1.0,1.0,57,0.00,,,0.00,WeatherCatV1.10B1784,2013-03-16 14:06:00,
2013-03-16 10:11:00,29.0,15.3,29.82,NW,323,0.0,3.0,56,0.00,,,0.00,WeatherCatV1.10B1784,2013-03-16 14:11:00,
2013-03-16 10:16:00,29.1,15.0,29.82,NW,323,2.0,3.0,55,0.00,,,0.00,WeatherCatV1.10B1784,2013-03-16 14:16:00,
2013-03-16 10:21:00,29.1,14.6,29.82,NW,323,0.0,2.0,54,0.00,,,0.00,WeatherCatV1.10B1784,2013-03-16 14:21:00,
2013-03-16 10:26:00,29.6,15.9,29.82,NW,323,2.0,3.0,56,0.00,,,0.00,WeatherCatV1.10B1784,2013-03-16 14:26:00,
2013-03-16 10:31:00,29.8,15.2,29.82,NW,323,0.0,2.0,54,0.00,,,0.00,WeatherCatV1.10B1784,2013-03-16 14:31:00,
2013-03-16 10:36:00,29.7,15.1,29.82,NW,323,1.0,3.0,54,0.00,,,0.00,WeatherCatV1.10B1784,2013-03-16 14:36:00,
2013-03-16 10:41:00,29.6,14.2,29.82,NW,323,1.0,2.0,52,0.00,,,0.00,WeatherCatV1.10B1784,2013-03-16 14:41:00,
2013-03-16 10:46:00,29.8,14.8,29.82,NW,319,0.0,4.0,53,0.00,,,0.00,WeatherCatV1.10B1784,2013-03-16 14:46:00,
2013-03-16 10:51:00,30.1,15.5,29.82,NW,320,0.0,0.0,54,0.00,,,0.00,WeatherCatV1.10B1784,2013-03-16 14:51:00,
2013-03-16 10:56:00,30.5,15.0,29.82,NW,320,0.0,2.0,52,0.00,,,0.00,WeatherCatV1.10B1784,2013-03-16 14:56:00,
2013-03-16 11:01:00,30.3,14.8,29.82,NW,320,2.0,3.0,52,0.00,,,0.00,WeatherCatV1.10B1784,2013-03-16 15:01:00,
2013-03-16 11:06:00,30.1,15.5,29.82,NW,320,0.0,2.0,54,0.00,,,0.00,WeatherCatV1.10B1784,2013-03-16 15:06:00,
2013-03-16 11:11:00,30.1,15.1,29.82,NW,320,1.0,2.0,53,0.00,,,0.00,WeatherCatV1.10B1784,2013-03-16 15:11:00,
2013-03-16 11:16:00,30.1,14.6,29.81,NW,320,0.0,1.0,52,0.00,,,0.00,WeatherCatV1.10B1784,2013-03-16 15:16:00,
2013-03-16 11:21:00,30.2,14.7,29.81,NW,320,1.0,3.0,52,0.00,,,0.00,WeatherCatV1.10B1784,2013-03-16 15:21:00,
2013-03-16 11:26:00,30.3,14.4,29.81,NW,319,1.0,4.0,51,0.00,,,0.00,WeatherCatV1.10B1784,2013-03-16 15:26:00,
2013-03-16 11:31:00,30.1,13.7,29.81,WNW,285,1.0,6.0,50,0.00,,,0.00,WeatherCatV1.10B1784,2013-03-16 15:31:00,
2013-03-16 11:36:00,30.4,14.9,29.80,WNW,285,0.0,0.0,52,0.00,,,0.00,WeatherCatV1.10B1784,2013-03-16 15:36:00,
2013-03-16 11:41:00,30.5,14.1,29.80,WNW,285,0.0,2.0,50,0.00,,,0.00,WeatherCatV1.10B1784,2013-03-16 15:41:00,
2013-03-16 11:46:00,30.9,14.5,29.81,West,276,0.0,4.0,50,0.00,,,0.00,WeatherCatV1.10B1784,2013-03-16 15:46:00,
2013-03-16 11:51:00,31.0,13.6,29.80,West,279,0.0,2.0,48,0.00,,,0.00,WeatherCatV1.10B1784,2013-03-16 15:51:00,
2013-03-16 11:56:00,31.3,13.4,29.80,West,279,0.0,4.0,47,0.00,,,0.00,WeatherCatV1.10B1784,2013-03-16 15:56:00,
2013-03-16 12:01:00,31.7,13.8,29.80,West,276,7.0,7.0,47,0.00,,,0.00,WeatherCatV1.10B1784,2013-03-16 16:01:00,
2013-03-16 12:06:00,32.0,13.6,29.79,West,275,0.0,4.0,46,0.00,,,0.00,WeatherCatV1.10B1784,2013-03-16 16:06:00,
2013-03-16 12:11:00,32.0,13.1,29.79,West,275,1.0,3.0,45,0.00,,,0.00,WeatherCatV1.10B1784,2013-03-16 16:11:00,
2013-03-16 12:16:00,32.0,12.6,29.79,West,273,4.0,4.0,44,0.00,,,0.00,WeatherCatV1.10B1784,2013-03-16 16:16:00,
2013-03-16 12:21:00,31.9,13.0,29.79,West,275,0.0,1.0,45,0.00,,,0.00,WeatherCatV1.10B1784,2013-03-16 16:21:00,
2013-03-16 12:26:00,31.9,13.0,29.79,West,275,0.0,4.0,45,0.00,,,0.00,WeatherCatV1.10B1784,2013-03-16 16:26:00,
2013-03-16 12:31:00,32.1,13.2,29.79,West,273,1.0,3.0,45,0.00,,,0.00,WeatherCatV1.10B1784,2013-03-16 16:31:00,
2013-03-16 12:36:00,32.0,12.6,29.79,West,274,0.0,3.0,44,0.00,,,0.00,WeatherCatV1.10B1784,2013-03-16 16:36:00,
2013-03-16 12:41:00,32.2,10.6,29.79,West,275,0.0,1.0,40,0.00,,,0.00,WeatherCatV1.10B1784,2013-03-16 16:41:00,
2013-03-16 12:46:00,32.5,12.0,29.78,West,275,0.0,3.0,42,0.00,,,0.00,WeatherCatV1.10B1784,2013-03-16 16:46:00,
2013-03-16 12:51:00,32.6,12.1,29.78,West,275,0.0,4.0,42,0.00,,,0.00,WeatherCatV1.10B1784,2013-03-16 16:51:00,
2013-03-16 12:56:00,32.6,11.5,29.78,West,275,0.0,1.0,41,0.00,,,0.00,WeatherCatV1.10B1784,2013-03-16 16:56:00,
2013-03-16 13:01:00,32.7,11.6,29.77,West,275,0.0,1.0,41,0.00,,,0.00,WeatherCatV1.10B1784,2013-03-16 17:01:00,
2013-03-16 13:06:00,33.2,12.6,29.78,West,275,0.0,1.0,42,0.00,,,0.00,WeatherCatV1.10B1784,2013-03-16 17:06:00,
2013-03-16 13:11:00,33.6,12.4,29.78,West,274,1.0,4.0,41,0.00,,,0.00,WeatherCatV1.10B1784,2013-03-16 17:11:00,
2013-03-16 13:16:00,33.5,11.2,29.78,West,273,0.0,2.0,39,0.00,,,0.00,WeatherCatV1.10B1784,2013-03-16 17:16:00,
2013-03-16 13:21:00,33.8,13.2,29.77,West,273,1.0,3.0,42,0.00,,,0.00,WeatherCatV1.10B1784,2013-03-16 17:21:00,
2013-03-16 13:26:00,34.4,10.9,29.77,West,273,0.0,0.0,37,0.00,,,0.00,WeatherCatV1.10B1784,2013-03-16 17:26:00,
2013-03-16 13:31:00,34.5,10.9,29.77,West,273,2.0,3.0,37,0.00,,,0.00,WeatherCatV1.10B1784,2013-03-16 17:31:00,
2013-03-16 13:36:00,34.4,11.5,29.77,West,277,3.0,4.0,38,0.00,,,0.00,WeatherCatV1.10B1784,2013-03-16 17:36:00,
2013-03-16 13:41:00,34.3,11.4,29.77,West,277,3.0,3.0,38,0.00,,,0.00,WeatherCatV1.10B1784,2013-03-16 17:41:00,
2013-03-16 13:46:00,34.8,10.6,29.77,West,277,4.0,4.0,36,0.00,,,0.00,WeatherCatV1.10B1784,2013-03-16 17:46:00,
2013-03-16 13:51:00,35.1,10.9,29.77,West,277,0.0,1.0,36,0.00,,,0.00,WeatherCatV1.10B1784,2013-03-16 17:51:00,
2013-03-16 13:56:00,34.9,10.1,29.76,SW,227,2.0,5.0,35,0.00,,,0.00,WeatherCatV1.10B1784,2013-03-16 17:56:00,
2013-03-16 14:01:00,34.2,10.7,29.76,SW,226,0.0,0.0,37,0.00,,,0.00,WeatherCatV1.10B1784,2013-03-16 18:01:00,
2013-03-16 14:06:00,35.3,12.8,29.76,SW,229,1.0,2.0,39,0.00,,,0.00,WeatherCatV1.10B1784,2013-03-16 18:06:00,
2013-03-16 14:11:00,36.2,12.5,29.76,WSW,241,0.0,0.0,37,0.00,,,0.00,WeatherCatV1.10B1784,2013-03-16 18:11:00,
2013-03-16 14:16:00,35.5,11.8,29.75,WSW,248,0.0,5.0,37,0.00,,,0.00,WeatherCatV1.10B1784,2013-03-16 18:16:00,
2013-03-16 14:22:00,35.0,11.4,29.76,WSW,252,4.0,5.0,37,0.00,,,0.00,WeatherCatV1.10B1784,2013-03-16 18:22:00,
2013-03-16 14:27:00,34.6,12.2,29.76,WSW,252,0.0,0.0,39,0.00,,,0.00,WeatherCatV1.10B1784,2013-03-16 18:27:00,
2013-03-16 14:32:00,34.7,12.3,29.76,WSW,252,1.0,1.0,39,0.00,,,0.00,WeatherCatV1.10B1784,2013-03-16 18:32:00,
2013-03-16 14:36:00,35.3,13.4,29.76,WSW,248,1.0,4.0,40,0.00,,,0.00,WeatherCatV1.10B1784,2013-03-16 18:36:00,
2013-03-16 14:41:00,35.8,13.9,29.76,WSW,248,3.0,3.0,40,0.00,,,0.00,WeatherCatV1.10B1784,2013-03-16 18:41:00,
2013-03-16 14:46:00,35.7,13.8,29.76,West,262,2.0,7.0,40,0.00,,,0.00,WeatherCatV1.10B1784,2013-03-16 18:46:00,
2013-03-16 14:51:00,35.7,13.2,29.76,West,262,2.0,4.0,39,0.00,,,0.00,WeatherCatV1.10B1784,2013-03-16 18:51:00,
2013-03-16 14:56:00,35.8,13.9,29.76,West,262,0.0,2.0,40,0.00,,,0.00,WeatherCatV1.10B1784,2013-03-16 18:56:00,
2013-03-16 15:01:00,35.9,14.0,29.75,West,262,0.0,2.0,40,0.00,,,0.00,WeatherCatV1.10B1784,2013-03-16 19:01:00,
2013-03-16 15:07:00,36.2,13.7,29.75,West,262,2.0,2.0,39,0.00,,,0.00,WeatherCatV1.10B1784,2013-03-16 19:07:00,
2013-03-16 15:12:00,36.1,14.1,29.76,West,262,0.0,2.0,40,0.00,,,0.00,WeatherCatV1.10B1784,2013-03-16 19:12:00,
2013-03-16 15:17:00,36.4,13.2,29.76,West,262,0.0,1.0,38,0.00,,,0.00,WeatherCatV1.10B1784,2013-03-16 19:17:00,
2013-03-16 15:22:00,36.4,13.8,29.75,West,262,1.0,3.0,39,0.00,,,0.00,WeatherCatV1.10B1784,2013-03-16 19:22:00,
2013-03-16 15:27:00,36.5,13.3,29.76,West,262,2.0,2.0,38,0.00,,,0.00,WeatherCatV1.10B1784,2013-03-16 19:27:00,
2013-03-16 15:32:00,37.1,13.9,29.76,West,262,0.0,2.0,38,0.00,,,0.00,WeatherCatV1.10B1784,2013-03-16 19:32:00,
2013-03-16 15:37:00,37.6,13.7,29.76,West,262,1.0,4.0,37,0.00,,,0.00,WeatherCatV1.10B1784,2013-03-16 19:37:00,
2013-03-16 15:42:00,37.2,12.7,29.76,West,262,0.0,2.0,36,0.00,,,0.00,WeatherCatV1.10B1784,2013-03-16 19:42:00,
2013-03-16 15:47:00,36.5,13.9,29.76,West,262,0.0,0.0,39,0.00,,,0.00,WeatherCatV1.10B1784,2013-03-16 19:47:00,
2013-03-16 15:52:00,36.0,12.3,29.75,West,262,4.0,4.0,37,0.00,,,0.00,WeatherCatV1.10B1784,2013-03-16 19:52:00,
2013-03-16 15:57:00,35.5,11.8,29.75,West,262,0.0,5.0,37,0.00,,,0.00,WeatherCatV1.10B1784,2013-03-16 19:57:00,
2013-03-16 16:02:00,36.0,12.3,29.75,West,262,2.0,4.0,37,0.00,,,0.00,WeatherCatV1.10B1784,2013-03-16 20:02:00,
2013-03-16 16:07:00,36.8,13.0,29.75,West,262,0.0,3.0,37,0.00,,,0.00,WeatherCatV1.10B1784,2013-03-16 20:07:00,
2013-03-16 16:12:00,36.8,11.7,29.74,West,262,0.0,0.0,35,0.00,,,0.00,WeatherCatV1.10B1784,2013-03-16 20:12:00,
2013-03-16 16:17:00,37.0,13.2,29.74,West,262,1.0,3.0,37,0.00,,,0.00,WeatherCatV1.10B1784,2013-03-16 20:17:00,
2013-03-16 16:22:00,36.9,13.1,29.74,West,262,4.0,5.0,37,0.00,,,0.00,WeatherCatV1.10B1784,2013-03-16 20:22:00,
2013-03-16 16:27:00,37.0,12.6,29.74,West,262,0.0,2.0,36,0.00,,,0.00,WeatherCatV1.10B1784,2013-03-16 20:27:00,
2013-03-16 16:32:00,37.2,12.1,29.74,West,262,0.0,3.0,35,0.00,,,0.00,WeatherCatV1.10B1784,2013-03-16 20:32:00,
2013-03-16 16:37:00,37.7,13.2,29.74,West,262,0.0,0.0,36,0.00,,,0.00,WeatherCatV1.10B1784,2013-03-16 20:37:00,
2013-03-16 16:42:00,37.6,12.5,29.74,West,262,0.0,1.0,35,0.00,,,0.00,WeatherCatV1.10B1784,2013-03-16 20:42:00,
2013-03-16 16:47:00,37.2,11.4,29.73,West,262,0.0,3.0,34,0.00,,,0.00,WeatherCatV1.10B1784,2013-03-16 20:47:00,
2013-03-16 16:52:00,36.9,11.8,29.73,West,262,0.0,0.0,35,0.00,,,0.00,WeatherCatV1.10B1784,2013-03-16 20:52:00,
2013-03-16 16:57:00,37.7,13.2,29.73,West,262,2.0,2.0,36,0.00,,,0.00,WeatherCatV1.10B1784,2013-03-16 20:57:00,
2013-03-16 17:02:00,38.2,12.3,29.74,West,262,0.0,0.0,34,0.00,,,0.00,WeatherCatV1.10B1784,2013-03-16 21:02:00,
2013-03-16 17:07:00,38.8,13.5,29.74,West,262,0.0,0.0,35,0.00,,,0.00,WeatherCatV1.10B1784,2013-03-16 21:07:00,
2013-03-16 17:12:00,38.8,12.2,29.74,West,262,0.0,2.0,33,0.00,,,0.00,WeatherCatV1.10B1784,2013-03-16 21:12:00,
2013-03-16 17:17:00,37.7,12.5,29.74,West,262,0.0,0.0,35,0.00,,,0.00,WeatherCatV1.10B1784,2013-03-16 21:17:00,
2013-03-16 17:22:00,36.8,11.7,29.74,West,262,0.0,0.0,35,0.00,,,0.00,WeatherCatV1.10B1784,2013-03-16 21:22:00,
2013-03-16 17:27:00,36.4,12.6,29.74,West,262,0.0,2.0,37,0.00,,,0.00,WeatherCatV1.10B1784,2013-03-16 21:27:00,
2013-03-16 17:32:00,36.4,12.0,29.74,West,262,0.0,0.0,36,0.00,,,0.00,WeatherCatV1.10B1784,2013-03-16 21:32:00,
2013-03-16 17:37:00,36.4,13.2,29.74,West,262,0.0,1.0,38,0.00,,,0.00,WeatherCatV1.10B1784,2013-03-16 21:37:00,
2013-03-16 17:42:00,36.3,13.7,29.74,West,262,0.0,0.0,39,0.00,,,0.00,WeatherCatV1.10B1784,2013-03-16 21:42:00,
2013-03-16 17:47:00,35.9,14.0,29.74,West,262,0.0,3.0,40,0.00,,,0.00,WeatherCatV1.10B1784,2013-03-16 21:47:00,
2013-03-16 17:52:00,35.7,13.8,29.74,West,262,0.0,2.0,40,0.00,,,0.00,WeatherCatV1.10B1784,2013-03-16 21:52:00,
2013-03-16 17:57:00,35.7,15.4,29.74,West,262,4.0,5.0,43,0.00,,,0.00,WeatherCatV1.10B1784,2013-03-16 21:57:00,
2013-03-16 18:02:00,35.3,14.0,29.74,West,262,1.0,4.0,41,0.00,,,0.00,WeatherCatV1.10B1784,2013-03-16 22:02:00,
2013-03-16 18:07:00,35.2,14.4,29.74,West,262,3.0,5.0,42,0.00,,,0.00,WeatherCatV1.10B1784,2013-03-16 22:07:00,
2013-03-16 18:12:00,35.0,14.3,29.74,West,262,0.0,1.0,42,0.00,,,0.00,WeatherCatV1.10B1784,2013-03-16 22:12:00,
2013-03-16 18:17:00,34.9,13.6,29.74,West,262,0.0,1.0,41,0.00,,,0.00,WeatherCatV1.10B1784,2013-03-16 22:17:00,
2013-03-16 18:22:00,34.8,14.1,29.74,West,262,1.0,3.0,42,0.00,,,0.00,WeatherCatV1.10B1784,2013-03-16 22:22:00,
2013-03-16 18:27:00,34.8,14.6,29.74,West,262,0.0,3.0,43,0.00,,,0.00,WeatherCatV1.10B1784,2013-03-16 22:27:00,
2013-03-16 18:32:00,34.8,14.6,29.74,West,262,0.0,1.0,43,0.00,,,0.00,WeatherCatV1.10B1784,2013-03-16 22:32:00,
2013-03-16 18:37:00,34.8,14.1,29.75,West,262,0.0,0.0,42,0.00,,,0.00,WeatherCatV1.10B1784,2013-03-16 22:37:00,
2013-03-16 18:42:00,34.7,14.5,29.75,West,262,0.0,0.0,43,0.00,,,0.00,WeatherCatV1.10B1784,2013-03-16 22:42:00,
2013-03-16 18:47:00,34.7,14.5,29.75,West,262,2.0,2.0,43,0.00,,,0.00,WeatherCatV1.10B1784,2013-03-16 22:47:00,
2013-03-16 18:52:00,34.6,14.4,29.75,West,262,2.0,5.0,43,0.00,,,0.00,WeatherCatV1.10B1784,2013-03-16 22:52:00,
2013-03-16 18:57:00,34.5,14.9,29.75,West,262,0.0,1.0,44,0.00,,,0.00,WeatherCatV1.10B1784,2013-03-16 22:57:00,
2013-03-16 19:02:00,34.4,15.3,29.76,West,262,0.0,1.0,45,0.00,,,0.00,WeatherCatV1.10B1784,2013-03-16 23:02:00,
2013-03-16 19:07:00,34.3,13.6,29.76,West,262,0.0,3.0,42,0.00,,,0.00,WeatherCatV1.10B1784,2013-03-16 23:07:00,
2013-03-16 19:12:00,34.2,14.1,29.76,West,262,1.0,2.0,43,0.00,,,0.00,WeatherCatV1.10B1784,2013-03-16 23:12:00,
2013-03-16 19:17:00,34.1,14.0,29.76,West,262,3.0,5.0,43,0.00,,,0.00,WeatherCatV1.10B1784,2013-03-16 23:17:00,
2013-03-16 19:22:00,34.1,14.0,29.76,West,262,1.0,4.0,43,0.00,,,0.00,WeatherCatV1.10B1784,2013-03-16 23:22:00,
2013-03-16 19:27:00,34.0,14.4,29.76,West,262,3.0,3.0,44,0.00,,,0.00,WeatherCatV1.10B1784,2013-03-16 23:27:00,
2013-03-16 19:32:00,34.0,14.4,29.76,West,262,4.0,4.0,44,0.00,,,0.00,WeatherCatV1.10B1784,2013-03-16 23:32:00,
2013-03-16 19:37:00,33.9,14.3,29.77,West,262,6.0,6.0,44,0.00,,,0.00,WeatherCatV1.10B1784,2013-03-16 23:37:00,
2013-03-16 19:42:00,33.9,14.3,29.77,West,262,0.0,0.0,44,0.00,,,0.00,WeatherCatV1.10B1784,2013-03-16 23:42:00,
2013-03-16 19:47:00,33.9,14.3,29.77,West,262,0.0,0.0,44,0.00,,,0.00,WeatherCatV1.10B1784,2013-03-16 23:47:00,
2013-03-16 19:52:00,33.8,14.2,29.77,West,262,0.0,0.0,44,0.00,,,0.00,WeatherCatV1.10B1784,2013-03-16 23:52:00,
2013-03-16 19:57:00,33.7,14.6,29.77,West,262,0.0,0.0,45,0.00,,,0.00,WeatherCatV1.10B1784,2013-03-16 23:57:00,
2013-03-16 20:02:00,33.7,14.6,29.78,West,262,0.0,0.0,45,0.00,,,0.00,WeatherCatV1.10B1784,2013-03-17 00:02:00,
2013-03-16 20:07:00,33.6,15.1,29.78,West,262,0.0,0.0,46,0.00,,,0.00,WeatherCatV1.10B1784,2013-03-17 00:07:00,
2013-03-16 20:12:00,33.5,15.5,29.78,West,262,0.0,0.0,47,0.00,,,0.00,WeatherCatV1.10B1784,2013-03-17 00:12:00,
2013-03-16 20:17:00,33.5,15.5,29.78,West,262,0.0,0.0,47,0.00,,,0.00,WeatherCatV1.10B1784,2013-03-17 00:17:00,
2013-03-16 20:22:00,33.4,14.9,29.78,West,262,0.0,0.0,46,0.00,,,0.00,WeatherCatV1.10B1784,2013-03-17 00:22:00,
2013-03-16 20:27:00,33.4,15.4,29.78,West,262,0.0,0.0,47,0.00,,,0.00,WeatherCatV1.10B1784,2013-03-17 00:27:00,
2013-03-16 20:32:00,33.3,15.8,29.78,West,262,0.0,0.0,48,0.00,,,0.00,WeatherCatV1.10B1784,2013-03-17 00:32:00,
2013-03-16 20:37:00,33.2,15.7,29.78,West,262,0.0,0.0,48,0.00,,,0.00,WeatherCatV1.10B1784,2013-03-17 00:37:00,
2013-03-16 20:42:00,33.1,15.6,29.79,West,262,0.0,0.0,48,0.00,,,0.00,WeatherCatV1.10B1784,2013-03-17 00:42:00,
2013-03-16 20:47:00,32.9,15.9,29.79,West,262,0.0,0.0,49,0.00,,,0.00,WeatherCatV1.10B1784,2013-03-17 00:47:00,
2013-03-16 20:52:00,32.8,18.0,29.79,West,262,0.0,0.0,54,0.00,,,0.00,WeatherCatV1.10B1784,2013-03-17 00:52:00,
2013-03-16 20:57:00,32.6,17.4,29.79,West,262,0.0,0.0,53,0.00,,,0.00,WeatherCatV1.10B1784,2013-03-17 00:57:00,
2013-03-16 21:01:00,32.5,18.6,29.79,West,262,0.0,0.0,56,0.00,,,0.00,WeatherCatV1.10B1784,2013-03-17 01:01:00,
2013-03-16 21:06:00,32.4,19.7,29.79,West,262,0.0,0.0,59,0.00,,,0.00,WeatherCatV1.10B1784,2013-03-17 01:06:00,
2013-03-16 21:11:00,32.2,19.9,29.80,West,262,0.0,0.0,60,0.00,,,0.00,WeatherCatV1.10B1784,2013-03-17 01:11:00,
2013-03-16 21:16:00,31.9,19.2,29.80,West,262,0.0,0.0,59,0.00,,,0.00,WeatherCatV1.10B1784,2013-03-17 01:16:00,
2013-03-16 21:21:00,31.7,18.6,29.80,West,262,0.0,0.0,58,0.00,,,0.00,WeatherCatV1.10B1784,2013-03-17 01:21:00,
2013-03-16 21:26:00,31.6,18.5,29.80,West,262,0.0,0.0,58,0.00,,,0.00,WeatherCatV1.10B1784,2013-03-17 01:26:00,
2013-03-16 21:31:00,31.6,19.3,29.80,West,262,0.0,0.0,60,0.00,,,0.00,WeatherCatV1.10B1784,2013-03-17 01:31:00,
2013-03-16 21:36:00,31.5,19.2,29.80,West,262,0.0,0.0,60,0.00,,,0.00,WeatherCatV1.10B1784,2013-03-17 01:36:00,
2013-03-16 21:41:00,31.4,18.0,29.81,West,262,0.0,0.0,57,0.00,,,0.00,WeatherCatV1.10B1784,2013-03-17 01:41:00,
2013-03-16 21:46:00,31.5,18.0,29.81,West,262,0.0,0.0,57,0.00,,,0.00,WeatherCatV1.10B1784,2013-03-17 01:46:00,
2013-03-16 21:51:00,31.5,18.8,29.81,West,262,0.0,0.0,59,0.00,,,0.00,WeatherCatV1.10B1784,2013-03-17 01:51:00,
2013-03-16 21:56:00,31.4,19.9,29.81,West,262,0.0,0.0,62,0.00,,,0.00,WeatherCatV1.10B1784,2013-03-17 01:56:00,
2013-03-16 22:01:00,31.4,20.3,29.81,West,262,0.0,0.0,63,0.00,,,0.00,WeatherCatV1.10B1784,2013-03-17 02:01:00,
2013-03-16 22:06:00,31.3,19.4,29.81,West,262,0.0,0.0,61,0.00,,,0.00,WeatherCatV1.10B1784,2013-03-17 02:06:00,
2013-03-16 22:11:00,31.3,20.9,29.82,West,262,0.0,0.0,65,0.00,,,0.00,WeatherCatV1.10B1784,2013-03-17 02:11:00,
2013-03-16 22:17:00,31.1,19.2,29.82,West,262,0.0,0.0,61,0.00,,,0.00,WeatherCatV1.10B1784,2013-03-17 02:17:00,
2013-03-16 22:22:00,31.0,19.1,29.82,West,262,0.0,0.0,61,0.00,,,0.00,WeatherCatV1.10B1784,2013-03-17 02:22:00,
2013-03-16 22:27:00,31.0,19.1,29.82,West,262,0.0,0.0,61,0.00,,,0.00,WeatherCatV1.10B1784,2013-03-17 02:27:00,
2013-03-16 22:32:00,30.9,20.9,29.83,West,262,0.0,0.0,66,0.00,,,0.00,WeatherCatV1.10B1784,2013-03-17 02:32:00,
2013-03-16 22:37:00,30.8,19.7,29.83,West,262,0.0,0.0,63,0.00,,,0.00,WeatherCatV1.10B1784,2013-03-17 02:37:00,
2013-03-16 22:42:00,30.8,19.3,29.83,West,262,0.0,0.0,62,0.00,,,0.00,WeatherCatV1.10B1784,2013-03-17 02:42:00,
2013-03-16 22:47:00,30.7,18.5,29.83,West,262,0.0,0.0,60,0.00,,,0.00,WeatherCatV1.10B1784,2013-03-17 02:47:00,
2013-03-16 22:52:00,30.7,19.2,29.83,West,262,0.0,0.0,62,0.00,,,0.00,WeatherCatV1.10B1784,2013-03-17 02:52:00,
2013-03-16 22:57:00,30.4,19.7,29.83,West,262,0.0,1.0,64,0.00,,,0.00,WeatherCatV1.10B1784,2013-03-17 02:57:00,
2013-03-16 23:02:00,30.5,17.1,29.84,West,262,0.0,0.0,57,0.00,,,0.00,WeatherCatV1.10B1784,2013-03-17 03:02:00,
2013-03-16 23:07:00,30.5,16.7,29.84,West,262,0.0,0.0,56,0.00,,,0.00,WeatherCatV1.10B1784,2013-03-17 03:07:00,
2013-03-16 23:12:00,30.4,16.6,29.84,West,262,0.0,3.0,56,0.00,,,0.00,WeatherCatV1.10B1784,2013-03-17 03:12:00,
2013-03-16 23:17:00,30.3,16.1,29.84,West,262,0.0,0.0,55,0.00,,,0.00,WeatherCatV1.10B1784,2013-03-17 03:17:00,
2013-03-16 23:22:00,30.2,16.4,29.84,West,262,0.0,0.0,56,0.00,,,0.00,WeatherCatV1.10B1784,2013-03-17 03:22:00,
2013-03-16 23:27:00,30.0,16.2,29.85,West,262,0.0,0.0,56,0.00,,,0.00,WeatherCatV1.10B1784,2013-03-17 03:27:00,
2013-03-16 23:32:00,29.9,15.7,29.85,West,262,0.0,0.0,55,0.00,,,0.00,WeatherCatV1.10B1784,2013-03-17 03:32:00,
2013-03-16 23:37:00,29.8,15.6,29.85,West,262,0.0,1.0,55,0.00,,,0.00,WeatherCatV1.10B1784,2013-03-17 03:37:00,
2013-03-16 23:42:00,29.7,15.5,29.85,West,262,0.0,0.0,55,0.00,,,0.00,WeatherCatV1.10B1784,2013-03-17 03:42:00,
2013-03-16 23:47:00,29.6,15.0,29.86,West,262,0.0,0.0,54,0.00,,,0.00,WeatherCatV1.10B1784,2013-03-17 03:47:00,
2013-03-16 23:52:00,29.4,15.7,29.86,West,262,0.0,0.0,56,0.00,,,0.00,WeatherCatV1.10B1784,2013-03-17 03:52:00,
2013-03-16 23:57:00,29.3,15.2,29.86,West,262,0.0,0.0,55,0.00,,,0.00,WeatherCatV1.10B1784,2013-03-17 03:57:00,